McAlester, OK

3:19 AM CDT on May 21, 2018 (GMT -0500)
McAlester Regional

Weather History for KMLC - January, 2012

Change the Weather History Date:

Monday, January 16, 2012

  Actual Average Record
Temperature  
Mean Temperature 64 °F -  
Max Temperature 70 °F 49 °F 70 °F (2012)
Min Temperature 59 °F 30 °F 3 °F (2018)
Growing Degree Days 14 (Base 50)    
Moisture  
Dew Point 55 °F    
Average Humidity 72    
Maximum Humidity 81    
Minimum Humidity 59    
Precipitation  
Precipitation 0.00 in - - ()
Sea Level Pressure  
Sea Level Pressure 29.88 in    
Wind  
Wind Speed 17 mph (SSW)    
Max Wind Speed 23 mph    
Max Gust Speed 34 mph    
Visibility 10 miles    
Events      
Averages and records for this station are not official NWS values.
T = Trace of Precipitation, MM = Missing Value Source: NWS Daily Summary

Daily Weather History Graph

Daily Weather History Graph

Search for Another Location

Airport or City:

Astronomy

Jan. 16, 2012 Rise Set
Actual Time 7:30 AM CST 5:35 PM CST
Civil Twilight 7:02 AM CST 6:03 PM CST
Nautical Twilight 6:31 AM CST 6:34 PM CST
Astronomical Twilight 6:01 AM CST 7:04 PM CST
Moon 12:44 AM CST (1/16) 11:46 AM CST (1/16)
Length of Visible Light 11h 00m
Length of Day
10h 05m
Last Quarter, 46% of the Moon is Illuminated
Jan 16
Last Quarter
Jan 23
New
Jan 30
First Quarter
Feb 7
Full
Feb 14
Last Quarter

Hourly Weather History & Observations

Time (CST) Temp. Dew Point Humidity Pressure Visibility Wind Dir Wind Speed Gust Speed Precip Events Conditions
12:15 AM 59.0 °F 48.2 °F 67% 30.01 in 10.0 mi South 16.1 mph 26.5 mph N/A   Mostly Cloudy
12:53 AM 60.1 °F 50.0 °F 69% 29.98 in 10.0 mi South 17.3 mph 32.2 mph N/A   Overcast
1:53 AM 61.0 °F 51.1 °F 70% 29.97 in 10.0 mi South 18.4 mph 34.5 mph N/A   Overcast
2:53 AM 61.0 °F 52.0 °F 72% 29.96 in 10.0 mi SSW 20.7 mph 34.5 mph N/A   Overcast
3:53 AM 61.0 °F 53.1 °F 75% 29.95 in 10.0 mi SSW 15.0 mph 29.9 mph N/A   Overcast
4:53 AM 61.0 °F 53.1 °F 75% 29.94 in 10.0 mi SSW 16.1 mph 29.9 mph N/A   Mostly Cloudy
5:20 AM 60.8 °F 53.6 °F 77% 29.95 in 10.0 mi SSW 17.3 mph 27.6 mph N/A   Scattered Clouds
5:53 AM 60.1 °F 53.1 °F 78% 29.94 in 10.0 mi SSW 12.7 mph 20.7 mph N/A   Partly Cloudy
6:14 AM 60.8 °F 53.6 °F 77% 29.95 in 10.0 mi SSW 15.0 mph 21.9 mph N/A   Mostly Cloudy
6:53 AM 62.1 °F 54.0 °F 75% 29.95 in 10.0 mi South 13.8 mph 24.2 mph N/A   Overcast
7:53 AM 62.1 °F 55.0 °F 78% 29.96 in 10.0 mi SSW 15.0 mph 24.2 mph N/A   Overcast
8:53 AM 63.0 °F 55.0 °F 75% 29.95 in 10.0 mi SSW 18.4 mph 25.3 mph N/A   Overcast
9:53 AM 64.0 °F 55.9 °F 75% 29.96 in 10.0 mi SSW 18.4 mph 28.8 mph N/A   Mostly Cloudy
10:14 AM 64.4 °F 55.4 °F 73% 29.96 in 10.0 mi SSW 20.7 mph 29.9 mph N/A   Scattered Clouds
10:53 AM 66.0 °F 55.0 °F 68% 29.94 in 10.0 mi SSW 23.0 mph 31.1 mph N/A   Partly Cloudy
11:53 AM 68.0 °F 55.0 °F 63% 29.91 in 10.0 mi SSW 20.7 mph 29.9 mph N/A   Partly Cloudy
12:53 PM 68.0 °F 55.0 °F 63% 29.87 in 10.0 mi SSW 19.6 mph 31.1 mph N/A   Partly Cloudy
1:53 PM 70.0 °F 55.0 °F 59% 29.83 in 10.0 mi South 18.4 mph 31.1 mph N/A   Clear
2:53 PM 70.0 °F 55.9 °F 61% 29.81 in 10.0 mi SSW 21.9 mph 27.6 mph N/A   Clear
3:53 PM 70.0 °F 57.0 °F 63% 29.80 in 10.0 mi South 13.8 mph 29.9 mph N/A   Partly Cloudy
4:31 PM 68.0 °F 57.2 °F 68% 29.81 in 10.0 mi South 16.1 mph 29.9 mph N/A   Mostly Cloudy
4:41 PM 68.0 °F 57.2 °F 68% 29.81 in 10.0 mi South 17.3 mph 29.9 mph N/A   Scattered Clouds
4:53 PM 68.0 °F 57.0 °F 68% 29.79 in 10.0 mi South 13.8 mph 27.6 mph N/A   Partly Cloudy
5:53 PM 66.0 °F 57.9 °F 75% 29.79 in 10.0 mi South 15.0 mph 25.3 mph N/A   Scattered Clouds
6:53 PM 64.9 °F 57.9 °F 78% 29.79 in 10.0 mi South 15.0 mph 27.6 mph N/A   Scattered Clouds
7:29 PM 66.2 °F 57.2 °F 73% 29.81 in 10.0 mi South 13.8 mph 23.0 mph N/A   Mostly Cloudy
7:53 PM 66.0 °F 57.9 °F 75% 29.80 in 10.0 mi South 12.7 mph 26.5 mph N/A   Mostly Cloudy
8:53 PM 66.0 °F 57.9 °F 75% 29.81 in 10.0 mi South 13.8 mph 25.3 mph N/A   Mostly Cloudy
9:01 PM 66.2 °F 57.2 °F 73% 29.82 in 10.0 mi South 13.8 mph 25.3 mph N/A   Scattered Clouds
9:53 PM 64.9 °F 59.0 °F 81% 29.79 in 10.0 mi South 13.8 mph 25.3 mph N/A   Mostly Cloudy
10:53 PM 64.9 °F 59.0 °F 81% 29.80 in 10.0 mi SSW 15.0 mph 27.6 mph N/A   Mostly Cloudy
11:53 PM 64.9 °F 57.9 °F 78% 29.80 in 10.0 mi SSW 15.0 mph 24.2 mph N/A   Scattered Clouds